This is the latest recevied weather packets stored in our database for station/object K5NOC-12. If no packets are shown the sender has not sent any weather packets the latest 10 day(s).
| Time | Temp. | Humidity | Pressure | Rain* | Wind** | Luminosity | Snow |
|---|---|---|---|---|---|---|---|
| 1777253958 | 28.33° C | 14% | 1002.1 hPa | 0 mm | - | - | - |
| 1777253058 | 28.89° C | 13% | 1002 hPa | 0 mm | - | - | - |
| 1777252158 | 29.44° C | 13% | 1001.8 hPa | 0 mm | - | - | - |
| 1777251257 | 30° C | 14% | 1001.7 hPa | 0 mm | - | - | - |
| 1777250357 | 30° C | 14% | 1001.5 hPa | 0 mm | - | - | - |
| 1777249457 | 30° C | 14% | 1001.7 hPa | 0 mm | - | - | - |
| 1777248557 | 30° C | 14% | 1001.7 hPa | 0 mm | - | - | - |
| 1777247657 | 30.56° C | 14% | 1001.8 hPa | 0 mm | - | - | - |
| 1777246757 | 30° C | 14% | 1001.8 hPa | 0 mm | - | - | - |
| 1777245857 | 30.56° C | 14% | 1001.9 hPa | 0 mm | - | - | - |
| 1777244957 | 30° C | 15% | 1001.9 hPa | 0 mm | - | - | - |
| 1777244057 | 30° C | 16% | 1002.3 hPa | 0 mm | - | - | - |
| 1777243157 | 30.56° C | 14% | 1002.4 hPa | 0 mm | - | - | - |
| 1777242256 | 29.44° C | 15% | 1002.4 hPa | 0 mm | - | - | - |
| 1777241356 | 29.44° C | 15% | 1002.7 hPa | 0 mm | - | - | - |
| 1777240456 | 30° C | 15% | 1003 hPa | 0 mm | - | - | - |
| 1777239556 | 30° C | 14% | 1003.3 hPa | 0 mm | - | - | - |
| 1777238656 | 30.56° C | 14% | 1003.3 hPa | 0 mm | - | - | - |
| 1777237756 | 30.56° C | 15% | 1003.8 hPa | 0 mm | - | - | - |
| 1777236856 | 30° C | 14% | 1004.1 hPa | 0 mm | - | - | - |
| 1777235956 | 30° C | 16% | 1004.5 hPa | 0 mm | - | - | - |
| 1777235055 | 29.44° C | 16% | 1004.7 hPa | 0 mm | - | - | - |
| 1777234155 | 28.89° C | 16% | 1005.1 hPa | 0 mm | - | - | - |
| 1777233255 | 29.44° C | 17% | 1005.4 hPa | 0 mm | - | - | - |
| 1777232355 | 29.44° C | 16% | 1005.6 hPa | 0 mm | - | - | - |
* Rain latest hour (hover to see other rain measurements)
** Current wind speed in m/s (hover to see current wind gust speed)